Starlink 32327

operational
NORAD ID: 61641 Int'l Des: 2024-191 Owner: SPXS Country: US Constellation: starlink
LEOCIRCULAR

About Starlink 32327

Description loading...

Live Position

Loading 3D Globe...

Upcoming Passes

Altitude History

Altitude vs Time

uPlot chart will show altitude changes over time

Two-Line Element Set

1 61641U 24191W 25350.15981041 .00002659 00000-0 10609-3 0 9990
2 61641 43.0034 266.0602 0000928 288.6284 71.4467 15.27582673 64761
Epoch: Dec 16, 2025 • Age: 23 hours

Current Status

Altitude 485.8 km
Velocity 7.62 km/s
Sub-Earth Point -16.34°S, 107.28°E
Launch Date Oct 23, 2024
Age 1.1 years
Type internet

Technical Details

Classification Payload
Mass 730.00 kg
Dry Mass 700.00 kg
Total Mass 730.00 kg
Length 0.30 m
Diameter 4.10 m
Span 29.00 m
Shape Box + pan
Manufacturer SPXS
Bus Type Starlink V2M
Phase Status In Orbit
Owner/State SPXS/US

Large Constellations

Loading constellations...